Wind_Speed
14 14 15 15 15 16 16 17 17 16 16 16 16 16 17 17 17 17 17 17 18 18 19 19 19 19 19 19 19 20 20 20 20 20 20 20 20 21 21 21 22 22 23 23 23 23 23 23 23 23 23 23 23 23 23 24 24 24 25 25 25 25 25 25 26 26 27 28 28 28 28 28 27 26 26 25 25 25 25 25 25 24 24 24 23 23
15 15 15 15 15 16 16 17 17 17 17 17 17 17 17 17 17 17 17 17 18 18 18 19 19 19 19 19 19 19 19 19 20 20 20 20 20 20 21 21 21 22 22 23 23 23 24 24 24 24 24 24 24 24 24 24 24 24 25 25 25 25 26 26 26 26 27 27 28 28 29 29 28 28 27 27 26 26 25 25 25 25 25 24 24 23
15 15 15 16 16 16 16 17 18 18 18 18 18 18 17 17 17 17 17 17 18 18 18 19 19 19 19 19 19 19 19 19 19 19 19 20 20 20 20 21 21 22 22 22 23 23 24 24 24 24 24 24 24 24 24 24 25 25 25 25 25 26 26 26 26 26 27 27 28 28 28 29 29 29 28 28 27 27 26 26 25 25 25 25 24 24
16 16 16 17 17 17 17 18 18 18 18 18 18 18 18 18 18 18 18 18 17 18 18 19 19 19 19 19 19 19 20 20 19 19 19 19 19 20 20 20 21 21 22 22 23 23 23 24 24 24 25 25 25 25 25 25 25 25 25 26 26 26 26 26 26 26 27 27 27 28 28 29 29 29 29 29 29 28 27 26 26 25 25 25 25 25
17 17 18 18 18 18 19 19 19 19 19 19 18 18 18 18 18 18 18 18 18 18 18 19 19 19 19 20 20 20 20 20 20 20 20 19 20 20 20 20 20 21 21 22 22 23 23 24 24 24 25 25 25 25 26 26 26 26 26 26 26 27 27 27 27 27 27 27 27 28 28 29 29 30 30 30 30 29 29 28 27 26 26 25 25 25
17 18 18 19 19 19 19 20 20 20 19 19 19 19 19 19 19 19 18 18 18 18 18 19 19 20 20 20 20 20 20 20 20 20 20 20 20 20 20 20 21 21 21 21 22 22 23 23 24 24 25 25 25 26 26 26 26 26 26 27 27 27 27 27 28 28 28 28 27 28 28 28 29 30 30 30 31 31 30 29 28 27 27 26 25 25
17 18 18 18 18 19 19 20 20 21 20 20 21 21 21 20 20 20 19 19 19 19 18 18 19 19 20 20 20 20 21 21 21 21 21 21 21 21 21 21 21 21 21 21 22 22 22 23 23 24 24 25 25 26 26 26 26 27 27 27 27 27 27 28 28 28 28 28 29 28 28 28 29 29 30 31 31 31 31 31 30 29 28 27 26 26
17 17 18 17 18 18 19 19 20 20 21 21 22 22 22 22 22 21 21 21 20 20 19 19 19 20 20 20 21 21 21 21 21 21 21 21 21 22 22 22 22 22 22 22 22 22 23 23 23 24 24 24 25 25 26 26 26 26 27 27 27 27 28 28 28 28 28 29 29 29 29 29 29 29 30 30 31 31 32 32 32 31 30 29 28 27
16 17 17 17 17 18 18 18 19 20 20 21 22 22 23 23 23 23 22 22 22 22 22 21 21 21 21 21 21 21 21 21 21 22 22 22 22 23 23 23 23 23 23 23 23 23 23 23 24 24 24 24 25 25 25 26 26 26 27 27 27 27 28 28 28 28 28 28 29 29 30 30 30 30 30 30 30 31 31 32 32 32 32 31 30 29
16 16 17 17 18 18 17 18 18 19 20 20 21 22 22 23 23 24 23 23 24 24 24 24 23 23 23 23 22 22 22 22 21 22 22 22 23 23 24 24 24 24 24 25 25 25 25 25 25 25 25 25 25 25 25 25 25 26 26 27 27 27 27 28 28 28 28 28 28 29 29 30 30 31 31 31 31 31 31 31 32 33 33 33 32 32
16 16 16 17 17 18 17 17 18 18 19 19 19 20 20 21 22 23 24 25 25 25 25 25 26 25 25 25 25 24 23 22 22 22 22 22 23 23 24 24 25 25 25 26 26 26 26 26 26 26 26 26 26 25 25 25 25 25 26 26 26 27 27 27 28 28 28 28 28 29 29 29 30 30 31 31 31 31 31 31 31 32 33 33 34 33
16 16 16 16 17 17 17 17 17 17 18 18 18 18 19 20 21 22 23 24 25 26 26 26 26 27 27 27 27 26 26 25 24 23 23 23 23 24 24 25 25 26 26 27 27 27 27 27 28 28 28 27 27 27 26 26 26 25 26 26 26 26 27 27 27 28 28 28 28 29 29 29 29 30 30 31 32 32 32 32 32 32 32 33 33 34
16 16 16 16 16 16 16 16 16 17 17 17 18 18 19 20 21 21 22 22 24 25 25 26 26 27 27 27 28 28 28 27 27 26 25 25 25 25 26 26 26 27 27 28 28 28 29 29 29 29 29 29 28 28 27 27 27 26 26 26 26 26 26 26 26 27 27 28 28 29 29 29 29 29 30 30 31 32 32 32 32 32 32 32 33 34
16 16 16 16 16 16 16 16 16 16 17 17 18 18 19 20 20 20 21 21 22 23 24 25 25 26 27 28 28 28 29 29 29 28 27 27 27 27 27 27 28 28 28 29 29 30 30 30 30 30 30 30 30 29 29 29 28 28 27 27 26 26 25 25 26 26 26 27 28 28 29 29 29 29 30 30 30 31 31 32 32 33 33 33 33 33
16 16 15 15 15 15 15 15 16 16 17 17 17 17 18 18 19 20 20 21 22 23 24 24 25 26 26 27 28 28 29 30 30 30 30 29 29 29 30 30 30 30 30 30 30 31 31 31 31 31 31 31 31 31 31 30 30 29 29 28 27 26 26 25 25 25 25 26 26 27 28 28 29 29 29 30 30 30 31 31 32 32 33 33 33 33
16 16 15 15 15 15 15 15 15 16 16 17 17 17 17 18 19 20 21 22 23 24 24 25 26 26 26 26 27 28 29 30 31 32 32 31 31 31 32 32 32 32 32 32 32 32 32 32 31 31 31 31 31 32 32 31 31 31 30 30 29 28 27 26 26 25 25 25 25 26 27 27 28 29 29 29 30 30 30 30 31 31 32 32 33 33
16 16 15 15 15 15 15 15 15 16 16 16 17 17 17 18 19 20 21 22 23 24 24 25 26 27 28 27 27 28 29 31 32 32 32 32 32 32 33 34 34 34 34 34 33 33 33 32 32 32 32 32 32 32 32 32 32 32 32 31 31 30 29 28 27 26 26 25 25 25 26 26 27 28 28 29 30 30 30 30 31 31 31 32 32 33
16 15 15 15 15 15 15 15 16 16 16 16 17 17 18 18 19 20 21 22 22 23 24 25 25 26 28 28 28 28 29 31 32 33 33 33 32 32 33 34 35 35 35 35 35 35 34 34 33 33 33 32 33 33 33 33 33 33 32 32 32 31 31 30 29 28 27 26 26 26 26 26 26 27 28 28 29 30 30 31 31 31 31 31 31 32
16 15 15 15 15 15 15 15 16 16 17 17 17 18 18 19 19 20 21 22 23 23 24 25 25 26 27 27 27 28 29 30 31 32 33 33 33 33 33 34 35 35 36 36 36 36 36 35 35 34 34 33 33 33 33 33 33 33 33 33 33 32 32 31 31 30 29 28 27 27 26 26 26 27 27 28 28 29 30 30 31 31 31 31 31 31
16 15 15 15 15 15 15 15 16 17 17 17 18 18 19 20 20 21 22 22 23 24 24 25 25 26 27 27 28 28 28 29 31 32 33 34 33 33 33 34 35 35 36 36 36 36 36 36 36 36 35 35 34 34 34 34 33 33 33 33 33 33 33 33 32 32 31 30 29 28 27 27 27 27 27 27 28 28 29 30 31 31 31 31 31 31
15 15 15 15 15 14 15 16 16 17 17 18 18 19 19 20 21 22 22 23 24 24 25 25 26 26 27 28 28 28 28 29 31 32 33 34 34 33 33 33 34 35 35 35 36 36 36 37 37 37 37 36 36 36 35 34 34 34 33 33 33 33 33 33 33 33 32 31 31 30 29 28 27 27 27 27 27 28 28 29 30 31 31 31 31 31
15 15 15 15 15 15 15 16 16 17 17 18 19 20 20 21 22 23 23 24 24 25 25 26 26 27 27 28 28 28 28 29 30 31 33 34 34 34 32 33 34 35 35 35 35 35 36 36 36 37 37 37 37 37 36 35 35 34 34 34 34 34 33 33 33 33 33 32 32 31 30 29 28 28 28 27 27 28 28 29 29 30 31 31 31 31
15 15 15 15 15 15 15 16 16 17 18 18 19 20 21 22 22 23 24 24 25 25 26 27 27 27 27 28 28 28 28 28 29 30 32 34 35 34 33 33 34 35 35 35 35 35 36 36 36 36 37 37 38 38 37 37 36 35 35 34 34 34 34 34 34 34 33 33 33 32 31 31 30 29 29 28 28 28 28 29 29 30 30 31 31 31
15 15 15 15 15 15 16 16 16 17 18 19 20 20 21 22 23 23 24 24 25 26 27 27 28 28 28 28 28 28 28 28 29 30 31 33 34 35 34 33 34 35 35 35 35 35 35 35 36 36 36 37 37 38 38 38 37 37 36 35 35 34 34 34 34 34 34 34 33 33 32 32 31 31 30 30 30 29 29 30 30 30 31 31 31 31
15 15 15 16 16 16 16 16 17 18 19 19 20 21 22 23 23 24 25 25 25 26 27 28 28 28 29 29 29 29 29 29 29 30 31 33 34 35 34 34 34 35 36 35 35 35 35 35 35 36 36 36 37 37 38 38 38 38 37 37 36 35 35 35 34 34 34 34 34 33 33 33 32 32 32 31 31 31 30 30 31 31 31 31 31 31
16 16 16 16 16 16 17 17 17 18 19 20 21 22 23 23 24 25 25 25 25 26 27 28 28 29 30 30 30 30 30 29 29 30 30 32 34 35 34 34 34 35 36 36 36 35 35 36 36 35 36 36 36 37 37 38 38 38 38 37 37 37 36 36 35 35 34 34 34 34 33 33 33 33 33 32 32 32 31 31 31 31 31 32 31 31
17 16 17 17 17 17 17 17 18 18 19 20 21 22 23 23 24 24 25 25 25 26 27 28 29 30 31 31 31 31 30 30 30 30 30 31 33 34 34 34 35 36 37 37 37 36 36 37 36 36 36 36 36 36 37 37 37 37 38 38 38 38 38 37 36 36 35 35 34 34 34 33 33 33 33 33 32 32 31 31 31 31 31 32 32 32
17 17 17 17 17 17 18 18 18 18 19 20 21 21 22 23 24 24 24 25 25 26 27 28 29 30 31 31 32 32 32 31 30 29 30 31 32 33 34 35 35 36 37 38 38 38 38 38 37 37 36 36 36 36 36 36 36 37 37 38 38 38 39 38 38 37 36 36 35 34 34 34 33 33 33 32 32 32 31 31 31 31 31 32 32 32
18 18 18 18 18 18 18 18 18 19 19 20 21 22 22 23 23 24 25 25 26 26 27 27 28 29 30 31 32 33 32 31 29 29 30 31 32 33 34 35 35 36 36 38 40 41 40 38 37 37 37 37 37 36 36 36 36 36 36 37 38 38 38 39 39 38 38 37 36 35 35 34 34 33 33 32 32 31 31 31 31 31 31 32 32 32
19 19 19 18 18 18 18 19 19 19 20 20 21 22 23 23 24 24 25 25 25 26 27 27 28 28 29 31 32 33 32 29 28 29 30 30 32 34 34 34 35 35 35 37 39 40 40 39 38 37 37 37 37 37 36 35 35 35 36 36 37 37 38 38 39 39 39 38 37 37 36 35 34 33 33 32 31 31 31 30 31 31 31 32 32 32
19 19 19 19 19 19 19 19 19 20 20 21 21 22 23 23 24 24 25 25 25 26 26 27 28 28 29 29 31 31 31 30 29 29 30 31 32 33 34 34 35 35 34 34 34 35 37 39 39 38 38 38 38 37 36 36 35 35 35 36 36 36 37 37 38 38 38 38 38 38 37 36 35 34 33 32 31 31 30 30 30 31 31 32 32 33
20 20 20 20 20 20 20 20 20 20 20 21 21 22 23 23 24 24 24 25 25 26 26 27 27 28 28 28 29 31 32 32 31 30 29 30 32 33 33 33 34 35 34 33 32 32 33 37 39 40 40 40 39 39 37 36 35 35 35 35 35 35 35 36 36 37 38 38 38 38 38 38 37 36 34 33 32 31 31 30 30 30 31 32 33 33
21 21 20 20 20 20 20 21 21 21 21 21 22 22 22 23 23 24 24 24 25 25 26 26 27 27 28 29 30 31 33 32 31 30 29 30 31 33 33 33 34 34 34 34 33 32 33 36 39 41 41 41 40 39 39 38 36 35 35 35 35 35 35 34 35 36 36 37 38 38 38 38 38 37 36 35 34 33 32 31 30 30 31 32 33 34
21 21 21 21 21 21 21 21 21 22 22 22 22 22 23 23 23 23 24 24 25 25 25 26 26 27 28 29 31 32 33 32 30 29 29 29 30 32 33 33 33 34 34 34 34 34 34 36 37 38 40 41 41 40 39 38 37 36 35 35 35 35 34 34 34 35 35 36 37 37 38 38 38 38 38 37 36 35 34 32 32 31 31 31 32 33
22 22 22 22 22 22 22 22 22 22 22 22 22 23 23 23 23 24 24 24 25 25 26 26 27 27 28 29 31 32 33 32 30 29 29 29 30 31 32 33 33 33 33 34 34 33 34 36 36 37 38 40 42 41 40 38 38 37 36 35 35 34 34 34 34 34 35 35 35 36 36 37 37 38 38 38 37 37 36 35 34 33 32 32 32 32
23 23 23 23 23 23 23 23 23 23 23 23 23 23 23 24 24 24 24 25 25 26 26 27 27 28 29 29 31 32 33 32 31 30 30 30 30 31 32 33 32 32 32 33 33 33 33 35 36 37 37 39 40 41 40 39 38 38 37 36 35 35 34 34 34 34 34 35 35 35 35 35 36 36 37 37 37 37 37 37 36 35 34 33 33 32
24 24 24 24 24 24 24 24 24 23 24 24 24 24 24 25 25 25 25 26 26 27 27 28 29 29 30 31 31 32 33 33 32 31 31 30 31 31 32 33 33 32 32 33 33 34 34 35 37 38 37 37 38 39 40 40 40 39 38 37 36 35 35 34 34 34 34 34 34 34 34 35 35 35 35 36 36 37 37 37 37 37 36 36 35 34
25 25 25 25 24 24 25 25 24 24 24 25 25 25 26 26 26 26 27 27 27 28 29 29 30 30 31 31 32 32 33 33 33 32 32 31 32 32 32 33 34 33 33 33 33 34 34 35 36 38 38 38 39 39 40 40 40 40 39 38 37 36 36 35 34 34 34 34 34 34 34 34 34 34 34 35 35 36 36 37 37 37 38 38 37 37
25 26 26 25 25 25 25 25 25 25 25 26 26 27 27 27 27 28 28 28 28 29 29 30 31 31 32 32 32 33 33 33 33 33 33 32 32 32 33 34 34 35 34 34 33 33 33 34 35 36 38 39 40 41 40 39 39 39 39 38 38 37 36 35 35 35 34 34 34 34 34 33 33 33 33 33 34 34 35 36 36 37 37 38 39 39
26 26 26 26 25 25 26 26 26 26 27 27 28 28 28 28 28 29 29 29 29 30 30 31 32 32 33 33 33 33 34 34 34 33 33 33 33 33 33 34 35 35 35 35 34 34 34 34 35 36 36 37 39 40 40 39 38 38 37 37 37 37 37 36 36 36 35 35 34 34 33 33 32 32 32 32 32 33 33 34 35 35 36 36 38 39
26 27 26 26 26 26 26 27 27 27 28 28 28 29 29 29 29 29 30 30 30 30 31 31 32 33 34 34 34 34 34 34 34 34 34 34 34 34 34 35 35 36 36 36 36 35 35 35 36 37 37 37 38 39 40 39 38 37 36 36 37 38 38 38 38 37 37 36 35 34 33 32 32 31 31 31 31 31 31 32 33 34 34 34 35 37
27 27 27 27 27 27 27 28 28 29 29 29 29 29 29 29 29 30 30 30 31 31 31 31 32 33 34 35 35 35 35 35 35 35 35 35 35 35 35 35 36 36 35 36 36 36 35 35 35 36 37 36 36 38 40 40 39 38 37 37 38 39 40 41 40 38 37 37 36 34 33 33 33 32 31 31 31 31 31 31 31 32 33 33 34 35
28 28 28 28 28 28 28 29 29 29 29 29 30 29 29 29 29 29 30 30 30 31 31 31 32 33 34 36 36 37 36 36 36 36 36 36 36 36 36 36 36 36 35 35 35 36 36 35 35 36 36 36 35 36 38 40 40 40 39 39 37 37 39 41 41 39 38 38 37 35 34 34 34 34 33 33 33 33 32 31 31 31 32 32 33 33
28 28 28 29 29 29 29 30 30 30 30 30 30 29 29 28 28 28 29 29 30 30 30 30 31 32 34 36 37 37 37 37 37 37 37 37 37 37 36 36 36 36 35 34 34 35 35 36 36 36 36 35 35 37 38 39 40 40 40 40 39 38 39 40 41 40 39 39 39 37 36 36 35 36 36 36 36 35 34 33 33 33 32 32 32 33
29 29 29 30 30 30 30 30 30 30 30 30 29 29 29 28 28 28 28 28 29 29 29 29 30 31 34 36 37 37 38 39 39 38 38 38 37 37 37 36 36 36 35 35 34 34 34 35 36 36 35 35 35 37 38 39 40 41 42 41 40 40 41 41 41 40 40 40 40 39 38 37 37 37 38 38 37 37 36 36 35 35 35 34 33 33
30 30 30 30 31 31 31 31 30 30 30 30 29 29 28 28 27 27 28 28 28 29 29 29 29 31 33 35 36 37 38 39 39 39 39 38 38 38 37 37 37 36 36 35 35 35 34 34 35 35 35 35 36 38 39 39 40 41 43 42 41 41 42 42 41 40 40 40 41 40 39 38 38 38 39 39 39 38 38 38 37 37 37 36 35 34
30 31 31 31 31 31 31 30 30 29 30 30 29 29 28 28 28 28 28 28 28 29 29 30 30 31 33 35 36 37 38 39 40 40 39 39 39 38 38 37 37 36 36 35 35 35 35 35 35 35 35 36 37 39 41 40 40 41 43 42 41 41 41 42 42 41 40 40 40 40 39 38 38 39 39 39 39 40 40 40 39 39 39 38 37 36
31 31 31 31 31 30 30 30 29 29 29 30 30 30 29 29 29 29 30 30 29 29 30 31 31 32 33 34 35 36 36 38 39 39 39 39 39 38 38 37 37 36 36 35 35 35 35 36 35 35 34 35 37 40 41 41 41 41 41 41 40 40 40 42 42 41 40 40 40 40 39 38 38 39 39 39 40 41 41 41 41 41 41 40 39 38
31 31 31 30 30 30 30 29 29 29 30 31 31 31 31 31 31 31 31 31 31 31 31 31 32 33 34 34 35 35 35 36 37 38 38 39 39 38 38 37 36 35 35 35 35 34 35 36 36 36 35 34 36 38 40 41 40 39 39 40 39 39 39 41 42 41 41 41 41 41 40 40 39 39 39 39 40 41 42 41 41 41 41 40 39 39
30 30 30 30 30 30 30 30 30 31 31 32 32 32 33 33 33 32 32 32 32 32 32 32 31 32 33 34 34 33 33 34 35 36 37 37 37 37 37 36 34 33 33 33 32 32 32 33 34 35 35 33 34 36 38 40 39 37 36 37 38 38 38 40 41 42 42 42 42 42 41 41 40 40 39 39 40 40 40 39 39 39 40 39 39 39
30 30 30 30 30 30 31 31 31 32 32 33 33 33 34 34 34 34 33 33 33 32 32 31 31 30 31 32 33 33 32 33 34 35 36 36 35 35 35 34 33 31 31 31 31 30 28 29 31 34 36 35 33 33 35 36 36 34 34 36 37 37 38 40 41 42 42 42 42 41 41 41 40 40 39 38 38 37 36 37 38 40 40 40 40 40
Wind_Direction
342 341 340 339 339 338 336 336 337 338 339 339 341 342 344 344 345 345 346 345 345 345 344 344 345 345 346 346 347 348 349 350 352 353 353 354 355 355 356 356 355 355 354 354 353 352 352 351 350 350 349 348 346 345 344 343 342 341 341 340 340 339 338 337 337 336 335 334 335 335 336 337 337 338 338 337 336 335 335 334 333 332 331 330 329 327
338 338 337 337 336 336 334 333 334 335 336 337 338 340 341 342 342 342 343 343 343 343 343 343 343 343 343 344 345 346 347 348 350 351 352 353 354 355 355 355 355 355 354 354 353 352 351 351 350 349 348 348 346 345 344 343 342 341 340 339 339 338 338 337 337 336 335 334 334 334 334 335 335 336 337 337 336 336 335 334 333 332 331 330 329 328
335 335 334 334 334 333 332 332 332 332 334 335 336 337 338 339 339 339 340 341 342 341 341 340 340 340 341 342 343 344 345 346 347 349 350 351 352 353 354 355 355 355 354 354 353 352 352 351 350 349 349 348 347 346 345 343 342 341 340 338 337 337 336 336 336 336 335 335 334 333 333 333 333 334 335 335 336 336 335 334 333 332 332 331 329 328
331 332 331 332 332 331 331 331 331 331 332 333 333 334 335 336 336 336 337 339 340 339 339 338 338 338 338 339 340 342 343 344 345 347 348 349 351 352 353 353 354 354 354 354 353 353 352 351 350 350 349 348 347 346 345 344 342 341 340 338 337 336 335 334 334 334 334 334 334 333 333 332 332 332 333 333 334 335 335 335 334 333 332 331 330 328
327 328 329 330 330 330 329 329 329 330 330 330 330 331 331 332 333 334 335 336 337 337 337 336 336 336 336 337 338 339 341 342 343 344 346 347 348 350 351 351 352 352 353 353 353 353 352 352 351 350 349 348 347 346 345 344 343 342 340 339 337 336 334 333 332 332 331 331 332 332 332 332 331 331 331 331 332 333 334 334 334 333 332 331 330 329
323 324 325 326 326 327 326 326 326 327 327 327 327 327 328 330 331 332 333 333 334 334 334 335 334 334 335 336 337 337 338 340 341 342 343 345 346 347 348 349 350 350 351 351 352 352 352 352 351 351 350 349 348 347 345 344 343 342 341 339 338 337 335 334 333 331 330 329 329 329 330 331 331 331 331 330 331 331 332 332 333 333 332 332 330 329
318 320 321 322 322 322 323 323 322 323 323 324 324 325 326 327 328 330 330 331 331 331 332 333 333 333 334 334 335 336 337 337 338 339 341 342 343 345 346 346 347 348 348 349 350 351 352 352 351 351 350 349 348 347 346 344 343 342 341 340 338 337 336 335 334 332 331 329 328 327 327 328 329 330 330 330 330 330 330 330 331 331 332 331 331 330
314 316 317 318 318 319 319 319 319 319 320 321 321 322 323 324 326 327 328 328 328 329 330 331 332 332 333 334 335 335 336 336 336 337 339 340 341 342 343 344 344 345 346 347 348 349 350 351 351 351 350 349 348 347 346 344 343 342 341 340 338 337 337 335 334 333 332 331 329 327 326 325 326 327 328 329 329 329 329 329 329 329 330 330 330 330
311 312 313 313 314 315 316 316 316 316 318 318 319 320 321 322 322 323 324 325 326 327 328 330 331 331 332 333 334 335 335 336 336 337 338 339 340 340 341 341 342 343 343 344 346 347 348 349 350 350 350 349 348 347 346 344 343 342 341 340 339 338 337 336 335 334 332 331 330 328 327 325 324 324 324 326 327 328 328 328 328 328 328 329 329 329
308 309 310 310 310 311 312 313 313 314 315 317 318 318 318 319 318 318 319 321 322 325 327 329 331 331 332 332 333 335 335 336 336 338 339 339 339 339 339 340 340 341 342 343 344 344 346 347 348 348 348 348 347 347 346 345 344 342 341 340 339 338 337 336 335 333 332 331 330 329 327 326 324 323 322 322 323 324 325 326 327 327 327 327 327 328
305 306 307 307 308 308 309 310 310 312 313 315 316 315 315 315 315 316 317 318 320 322 324 327 329 331 331 331 332 333 334 335 335 336 338 338 338 338 338 339 340 340 341 342 342 343 344 345 346 346 346 346 346 345 345 345 344 344 343 342 340 339 338 336 335 333 332 331 330 329 327 326 325 323 322 321 320 320 321 322 323 324 325 326 326 326
302 303 304 304 305 306 307 308 309 309 310 311 310 310 311 313 315 317 319 319 319 320 322 324 326 328 329 331 332 332 333 334 335 335 336 337 337 337 337 338 339 340 340 341 341 341 342 343 344 344 344 344 344 344 344 344 344 344 344 343 342 340 339 337 335 334 332 331 329 328 327 326 325 323 322 321 320 319 318 319 319 320 322 323 324 325
299 300 301 301 302 303 304 305 306 306 307 307 308 310 312 314 316 317 319 319 319 319 320 322 324 325 326 328 330 332 333 333 333 333 335 336 337 337 337 338 339 339 340 340 340 340 341 341 342 343 343 343 342 342 342 343 343 344 344 344 343 342 340 338 336 334 332 331 329 328 327 326 324 323 322 321 320 319 318 317 316 317 318 319 321 322
297 298 299 300 300 300 301 302 303 304 305 307 309 311 312 314 315 316 317 317 317 318 319 320 322 323 325 327 330 332 332 332 330 330 332 335 337 337 338 338 339 339 339 340 340 340 340 340 341 341 341 341 341 341 341 341 342 343 343 343 343 342 341 339 337 335 333 332 330 328 327 326 324 323 322 321 320 318 317 316 316 315 315 315 317 318
294 295 296 296 296 296 297 299 301 302 304 306 308 310 312 313 314 315 316 317 317 317 318 318 319 320 324 327 330 332 332 330 329 328 329 332 335 337 337 338 338 338 338 339 339 339 339 339 340 340 340 340 340 340 340 340 341 341 341 342 342 342 341 340 339 337 335 333 332 330 328 326 325 323 322 321 320 318 317 316 316 315 314 314 314 315
291 292 292 292 292 293 294 297 299 301 303 305 307 309 311 313 314 315 317 318 319 319 320 320 319 320 322 325 328 331 331 330 328 327 328 331 334 335 336 337 337 337 338 338 338 338 338 338 338 338 339 339 339 339 339 339 339 340 340 340 341 341 340 340 339 338 337 336 334 332 330 328 326 324 323 322 320 319 318 317 316 315 314 313 313 313
288 288 288 288 289 290 292 295 298 299 301 304 306 308 311 312 314 316 318 319 320 321 323 323 323 323 323 324 327 329 330 329 327 326 326 329 332 334 335 335 335 335 336 337 337 337 336 336 337 337 338 338 338 338 338 338 338 339 339 340 340 340 340 339 339 339 338 337 336 334 332 330 328 326 324 323 321 320 318 317 316 315 314 313 313 312
284 284 285 285 286 288 291 294 297 298 300 303 305 308 310 312 314 316 317 319 320 322 323 324 324 324 324 325 327 329 329 328 327 326 325 327 329 332 333 333 333 333 334 334 334 334 335 335 336 336 337 337 337 337 337 337 338 338 339 339 339 339 339 339 339 339 338 338 337 335 334 332 330 327 325 324 322 321 319 318 317 316 314 313 313 312
280 281 281 282 284 287 290 293 296 298 301 303 305 307 309 311 313 315 316 318 319 320 321 322 322 322 323 324 326 328 328 327 326 325 324 325 327 329 331 331 330 330 331 331 332 332 332 333 334 335 335 335 335 335 336 336 337 338 338 339 339 339 338 338 338 338 338 338 337 336 335 333 331 329 327 325 324 322 320 319 317 316 315 314 313 312
277 278 279 280 284 287 290 293 295 297 300 302 304 306 308 310 311 313 314 316 317 318 319 319 319 320 321 322 324 326 327 326 325 324 323 323 324 327 329 328 328 327 327 328 329 329 330 331 332 333 334 334 334 334 335 335 336 337 337 338 338 338 338 338 337 337 337 337 337 336 335 334 332 331 329 327 325 323 322 320 318 317 316 314 313 312
275 276 278 280 284 288 291 293 296 298 300 302 304 305 307 308 310 311 312 314 315 316 316 317 317 318 320 321 323 324 325 325 324 323 322 321 322 324 326 325 325 324 324 325 326 326 327 328 330 331 331 332 332 333 333 334 335 336 337 337 337 337 337 337 336 336 336 336 336 336 335 334 333 332 330 329 327 325 323 321 319 318 316 315 314 313
274 276 279 282 285 288 290 293 295 297 300 302 304 305 306 308 309 310 311 313 313 314 315 315 315 316 318 319 320 322 322 322 321 320 320 319 319 321 323 323 322 322 322 322 323 324 325 326 327 328 329 330 330 331 332 333 334 335 336 336 336 336 336 336 335 335 335 335 335 335 335 335 334 333 332 330 328 327 324 322 320 319 317 316 315 314
273 275 279 282 285 288 290 292 294 296 299 301 302 303 305 306 307 308 310 311 312 312 312 312 313 314 315 316 317 318 319 318 318 318 318 317 317 318 320 321 320 319 319 320 321 322 323 324 325 326 327 327 328 329 330 331 332 334 335 335 335 335 335 334 334 334 334 334 335 335 335 335 334 334 333 331 330 328 326 324 322 320 318 317 316 315
273 275 278 282 285 287 289 291 293 295 297 299 300 302 303 304 305 307 308 309 310 310 310 310 311 311 312 313 314 314 315 315 316 316 316 315 315 316 318 319 319 318 317 318 320 321 321 321 322 323 324 325 325 326 328 329 331 332 333 334 334 333 333 333 333 333 333 334 334 335 335 335 335 334 334 333 331 329 328 326 324 322 320 318 317 316
273 275 278 281 284 286 288 290 292 294 296 297 299 300 302 303 304 305 307 308 308 308 308 308 308 309 309 310 310 311 312 314 315 315 315 314 314 314 316 318 318 317 316 317 318 319 319 319 319 320 321 322 323 324 326 327 328 330 331 331 331 331 331 331 332 332 333 333 334 334 335 335 335 335 334 334 332 331 329 327 325 323 321 319 318 317
272 275 277 280 282 285 287 289 291 293 295 297 299 300 301 302 304 305 306 306 306 306 306 306 306 307 308 308 309 310 311 313 313 314 314 313 313 313 315 318 318 317 316 316 317 318 317 317 317 318 319 320 321 322 323 325 326 327 328 328 329 329 329 330 331 331 332 333 333 334 334 335 335 335 334 334 333 332 330 328 326 324 322 320 318 317
271 273 276 278 280 283 285 287 290 292 295 297 298 299 300 301 302 303 303 303 303 303 304 305 306 306 307 307 308 309 310 312 312 313 313 313 313 313 315 317 317 316 315 316 316 316 316 315 315 316 317 318 319 320 321 323 324 325 325 326 326 326 327 328 329 330 331 332 333 333 333 334 334 334 334 333 332 331 330 328 326 323 321 319 318 316
271 273 275 277 279 282 284 287 289 291 293 295 296 296 297 298 299 300 300 301 302 302 303 304 306 306 307 307 308 308 309 311 312 312 313 314 313 313 314 316 316 315 315 315 315 314 314 314 315 315 316 316 317 318 320 321 321 322 323 323 324 324 325 326 328 329 330 331 331 332 332 332 333 333 332 332 331 330 329 327 325 323 321 319 318 316
271 273 275 277 279 281 284 286 288 290 291 292 293 294 295 296 297 299 299 300 301 302 303 304 305 306 306 307 307 307 309 310 311 312 314 314 312 311 313 314 313 313 314 315 314 314 313 313 314 315 315 316 316 317 318 318 319 320 320 321 321 322 323 325 326 327 328 329 330 330 330 330 331 331 330 330 329 328 327 326 325 323 321 319 318 317
271 273 275 277 279 281 282 284 286 288 289 290 291 292 294 295 296 298 298 300 301 302 302 303 304 305 305 306 306 307 308 309 310 312 314 312 309 309 311 312 311 312 313 314 314 313 312 312 312 313 313 314 315 315 316 316 317 317 318 319 319 320 321 323 324 325 325 326 327 327 328 328 328 328 328 328 327 327 326 325 324 323 322 320 319 318
271 273 275 276 278 279 281 283 284 286 287 288 290 291 293 295 296 297 298 300 300 301 301 302 302 303 303 304 305 305 305 306 308 310 312 310 307 307 309 310 310 310 311 312 312 311 310 310 310 311 311 312 312 313 313 314 315 316 317 317 317 318 320 321 322 322 323 324 324 324 325 325 326 326 326 326 325 325 325 325 324 323 322 321 320 320
271 272 274 275 277 278 280 282 283 285 286 288 289 291 292 294 295 297 298 299 299 299 300 300 300 301 301 301 301 301 302 304 306 308 309 308 306 306 307 308 308 308 309 309 308 306 305 306 307 308 309 309 310 310 311 312 314 315 315 316 316 317 318 319 320 320 320 321 321 322 322 323 323 324 324 324 323 323 323 323 323 323 323 322 321 321
270 272 273 275 276 278 280 282 283 285 286 287 289 290 292 293 294 295 296 297 297 297 298 298 298 298 299 298 298 298 300 302 305 307 308 306 305 304 306 306 306 306 307 307 306 304 302 303 305 306 307 307 308 309 310 311 313 314 314 314 314 315 317 317 318 318 318 319 319 319 320 321 321 322 322 322 322 322 322 322 322 322 322 322 321 320
270 271 273 275 277 279 280 282 284 285 286 287 289 290 291 292 293 293 294 294 295 295 295 295 295 296 297 297 297 297 299 301 304 306 305 304 303 303 304 304 304 305 307 307 306 304 303 302 303 304 305 306 306 307 308 310 311 312 312 313 313 314 315 316 316 316 316 316 317 317 318 319 319 319 320 320 320 320 320 320 320 320 320 320 320 319
270 272 274 276 277 280 281 283 284 285 287 288 289 290 290 291 291 291 292 292 292 292 292 292 292 293 294 295 296 296 298 300 302 303 303 302 302 303 303 303 303 305 306 305 305 304 303 302 301 301 303 304 304 305 307 308 310 310 310 311 311 312 313 313 314 314 314 315 315 315 316 317 317 317 317 318 318 319 318 318 318 318 318 317 317 317
271 272 274 276 278 280 282 283 284 285 287 288 288 289 289 289 290 290 290 290 290 290 290 290 290 291 291 292 294 295 296 298 300 300 300 301 301 302 302 302 303 304 305 304 303 302 302 301 301 301 301 301 302 304 305 307 308 308 308 309 310 310 310 311 312 313 313 313 314 314 315 315 315 315 315 315 316 316 316 316 316 315 315 315 315 315
271 273 275 277 279 281 282 283 284 285 286 287 288 288 288 289 289 290 290 290 290 290 290 290 290 290 291 291 292 293 295 296 297 297 298 299 299 300 301 301 302 303 304 303 302 302 301 300 300 300 299 299 299 301 304 305 306 306 307 308 309 309 309 310 312 313 313 313 313 314 314 313 313 312 312 312 312 312 312 312 312 313 313 313 312 312
272 274 276 278 280 281 282 283 284 285 286 287 288 288 289 289 290 290 290 290 290 290 290 290 290 290 291 291 292 292 293 294 295 296 297 297 298 299 300 301 301 302 302 302 302 301 301 299 298 299 299 299 299 300 302 304 305 306 307 308 308 309 309 311 313 313 313 313 314 313 313 312 311 310 310 309 309 309 309 308 309 310 310 310 310 310
274 276 277 279 280 282 283 284 285 286 287 287 288 288 289 290 290 290 290 290 290 290 290 290 290 290 290 290 291 291 292 293 294 295 296 297 297 298 299 299 300 300 301 301 301 300 299 298 297 296 297 299 300 301 302 303 304 305 307 308 308 308 309 312 313 314 314 314 314 313 312 312 311 310 309 308 307 307 306 306 307 307 308 308 308 308
275 277 278 280 281 282 283 284 285 286 287 287 288 289 290 290 291 291 290 290 290 290 290 289 289 289 289 289 289 290 290 291 292 293 294 295 296 297 298 298 298 299 300 300 300 299 298 298 297 297 297 297 298 300 301 301 302 304 306 307 306 306 308 310 312 312 313 314 314 314 313 313 312 311 309 308 307 306 305 305 305 305 305 305 305 305
277 278 279 281 282 283 284 285 286 286 287 288 289 290 290 291 291 291 291 290 290 289 289 289 289 289 288 288 288 288 289 290 291 292 293 294 295 295 296 296 297 298 299 300 299 299 298 297 297 297 297 297 298 299 300 300 301 303 304 303 303 304 307 308 309 311 313 314 314 314 314 314 314 312 311 309 307 305 304 303 303 302 301 301 301 302
277 279 280 282 283 283 284 285 286 287 288 289 290 290 291 291 292 291 291 291 290 290 290 290 289 289 289 288 288 288 289 290 291 292 292 293 293 294 295 296 296 297 298 299 298 298 297 297 296 296 295 296 297 298 298 299 300 301 301 301 302 305 307 306 308 310 312 312 312 313 314 314 313 313 312 310 308 306 305 303 301 300 299 298 298 298
278 279 280 282 282 283 284 285 286 287 288 289 289 289 290 291 291 291 291 291 291 291 291 291 290 289 289 289 289 289 290 290 291 291 292 292 293 294 294 295 296 297 297 297 297 297 296 296 295 294 295 296 296 295 296 297 299 299 300 300 301 301 301 303 306 308 309 309 310 311 312 312 312 312 311 310 309 308 306 305 302 300 299 297 297 296
278 279 280 281 282 283 284 285 286 287 288 288 288 289 289 290 291 291 291 291 291 291 291 291 290 290 289 289 289 290 291 291 291 291 292 293 293 294 294 295 295 296 296 296 296 295 296 296 295 295 296 297 296 295 295 296 296 297 298 299 299 298 297 301 304 307 308 308 308 309 310 311 311 311 310 309 309 308 308 307 305 303 301 300 298 297
278 279 280 281 282 283 284 286 287 287 287 287 288 288 289 290 290 290 290 290 290 290 290 290 290 290 289 289 290 291 291 291 291 292 292 293 293 294 294 295 295 296 296 295 295 295 295 295 295 296 296 296 294 293 293 293 294 295 297 297 298 298 299 301 303 305 306 307 307 308 309 310 310 310 309 308 308 309 308 307 306 305 304 303 301 299
278 280 281 282 284 285 285 286 287 287 287 286 287 287 288 289 289 289 289 289 289 290 289 289 289 289 288 289 290 291 291 291 291 292 292 293 293 294 294 295 295 296 296 296 296 296 295 294 295 296 297 295 293 291 291 292 293 294 295 296 297 298 299 300 301 303 304 305 306 306 307 309 309 308 307 307 308 308 307 306 305 305 305 304 303 300
280 281 282 284 284 285 285 285 285 285 285 285 286 287 288 289 289 289 289 289 289 289 289 289 288 288 287 288 289 290 291 291 292 292 293 293 294 294 295 296 296 296 297 297 297 297 296 296 296 296 295 293 292 292 292 292 292 293 294 295 296 297 298 298 300 301 302 303 304 305 306 307 307 305 305 305 306 305 304 304 304 304 304 304 303 301
282 282 283 283 283 283 283 283 283 283 284 285 286 288 289 289 290 290 291 291 290 290 289 289 289 289 289 289 290 290 291 292 293 293 294 294 295 295 296 297 297 297 297 297 297 297 297 297 296 295 293 292 291 291 292 292 292 293 294 295 296 296 297 297 298 299 300 301 301 303 304 304 303 303 303 303 302 302 301 302 302 303 303 303 303 303
282 282 282 282 282 282 282 283 284 285 286 287 289 290 290 290 291 291 292 292 292 292 291 291 291 292 292 292 292 292 293 293 293 294 295 296 296 297 297 297 297 297 298 297 296 296 296 296 295 294 292 291 290 291 292 292 292 293 294 295 295 295 296 296 297 298 299 299 300 301 302 302 302 302 302 300 299 299 298 299 300 300 301 301 301 301
281 281 281 281 282 283 284 285 287 288 289 289 290 291 291 291 292 292 292 293 294 294 294 294 294 294 294 294 294 294 293 293 293 294 295 296 296 297 297 297 296 296 296 296 294 293 293 294 293 292 289 288 289 290 291 292 292 293 294 294 294 295 295 295 296 297 298 299 299 300 300 300 300 300 299 297 295 295 294 294 294 295 297 298 298 297
281 281 282 283 284 285 287 288 289 289 290 290 291 291 291 292 292 293 293 294 294 294 295 295 294 294 293 294 293 293 292 291 291 292 293 294 295 295 295 295 294 294 293 293 291 290 289 289 290 290 289 287 288 289 290 291 292 293 292 293 293 293 294 294 295 296 297 297 297 298 298 298 297 296 294 292 290 289 288 288 289 291 294 296 296 295
Height
1580 1580 1580 1580 1580 1579 1579 1579 1579 1578 1578 1578 1578 1577 1577 1576 1576 1576 1575 1575 1574 1573 1573 1572 1572 1571 1571 1570 1570 1569 1568 1568 1567 1566 1565 1565 1564 1563 1562 1561 1560 1559 1558 1557 1557 1556 1555 1555 1554 1553 1552 1552 1551 1550 1549 1548 1547 1546 1546 1545 1544 1543 1542 1541 1541 1539 1538 1537 1536 1535 1534 1533 1533 1532 1531 1531 1530 1529 1528 1527 1526 1526 1525 1524 1523 1522
1580 1579 1579 1579 1579 1579 1578 1578 1578 1577 1577 1577 1577 1576 1576 1576 1576 1575 1575 1574 1574 1573 1572 1572 1571 1571 1571 1570 1569 1569 1568 1567 1567 1566 1565 1564 1563 1563 1562 1561 1560 1559 1558 1557 1556 1556 1555 1554 1553 1552 1552 1551 1550 1549 1549 1548 1547 1546 1545 1544 1543 1542 1541 1541 1540 1539 1538 1537 1536 1535 1534 1533 1532 1531 1530 1530 1529 1528 1527 1526 1526 1525 1524 1523 1522 1521
1579 1579 1578 1578 1578 1578 1577 1577 1576 1576 1576 1576 1576 1575 1575 1575 1575 1574 1574 1574 1573 1572 1572 1571 1571 1571 1570 1569 1569 1568 1568 1567 1566 1566 1565 1564 1563 1562 1561 1561 1560 1559 1558 1557 1556 1555 1554 1554 1553 1552 1551 1550 1549 1549 1548 1547 1546 1545 1545 1544 1543 1542 1541 1540 1539 1538 1537 1536 1535 1534 1533 1532 1531 1530 1529 1528 1528 1527 1526 1526 1525 1524 1523 1522 1522 1521
1577 1577 1577 1577 1577 1576 1576 1576 1576 1575 1575 1575 1575 1574 1574 1574 1574 1573 1573 1573 1572 1572 1571 1571 1570 1570 1570 1569 1568 1568 1567 1566 1566 1565 1565 1564 1563 1562 1561 1561 1560 1559 1558 1557 1556 1555 1554 1553 1552 1551 1551 1550 1549 1548 1547 1546 1545 1544 1544 1543 1542 1541 1540 1539 1538 1537 1536 1536 1534 1533 1532 1531 1530 1529 1528 1527 1526 1526 1525 1525 1524 1523 1522 1521 1521 1520
1576 1576 1576 1576 1576 1575 1575 1575 1575 1574 1574 1574 1574 1573 1573 1573 1573 1572 1572 1572 1572 1571 1571 1570 1570 1569 1569 1568 1568 1567 1566 1566 1566 1565 1564 1563 1562 1562 1561 1560 1559 1558 1558 1557 1556 1555 1554 1553 1552 1551 1550 1549 1548 1547 1546 1545 1544 1543 1543 1542 1541 1540 1539 1538 1537 1536 1536 1535 1534 1533 1531 1531 1529 1528 1527 1526 1526 1525 1524 1523 1523 1522 1521 1521 1520 1519
1576 1575 1575 1575 1575 1574 1574 1574 1573 1573 1573 1573 1572 1572 1572 1572 1572 1571 1571 1571 1571 1571 1570 1570 1569 1568 1568 1567 1567 1566 1566 1565 1565 1564 1563 1563 1562 1561 1561 1560 1559 1558 1557 1556 1556 1555 1554 1552 1551 1551 1550 1548 1547 1546 1546 1545 1544 1543 1542 1541 1540 1539 1538 1537 1536 1535 1534 1533 1532 1531 1531 1530 1529 1527 1526 1525 1524 1523 1523 1522 1521 1521 1520 1520 1519 1518
1574 1574 1574 1574 1574 1573 1573 1573 1572 1572 1572 1571 1571 1571 1571 1571 1571 1570 1570 1570 1570 1570 1569 1569 1568 1568 1567 1567 1566 1566 1565 1565 1564 1563 1563 1562 1561 1561 1560 1559 1558 1557 1556 1556 1555 1554 1553 1552 1551 1550 1549 1548 1547 1546 1545 1544 1543 1542 1541 1540 1539 1538 1537 1536 1535 1534 1533 1532 1531 1530 1529 1529 1528 1526 1526 1524 1523 1522 1521 1521 1520 1519 1519 1518 1518 1517
1573 1573 1573 1573 1573 1572 1572 1572 1571 1571 1571 1570 1570 1570 1569 1569 1569 1569 1569 1568 1568 1568 1568 1568 1567 1567 1566 1566 1566 1565 1564 1564 1563 1562 1562 1561 1560 1560 1559 1558 1557 1556 1556 1555 1554 1553 1552 1552 1551 1550 1549 1548 1546 1546 1545 1543 1542 1541 1540 1539 1538 1537 1536 1535 1534 1533 1532 1531 1530 1529 1528 1527 1526 1526 1525 1523 1522 1521 1520 1519 1518 1518 1517 1517 1516 1516
1572 1572 1572 1571 1571 1571 1571 1571 1570 1570 1570 1569 1569 1568 1568 1568 1567 1567 1567 1567 1566 1566 1566 1566 1566 1566 1565 1565 1564 1564 1563 1563 1562 1561 1561 1560 1559 1558 1558 1557 1556 1556 1555 1554 1553 1552 1552 1551 1550 1549 1548 1547 1546 1545 1544 1543 1542 1541 1540 1538 1537 1536 1535 1534 1533 1532 1531 1530 1529 1528 1527 1526 1525 1524 1523 1522 1521 1520 1519 1518 1517 1516 1515 1515 1514 1514
1571 1571 1571 1570 1570 1570 1570 1570 1569 1569 1569 1568 1568 1567 1567 1566 1566 1566 1566 1566 1565 1565 1564 1564 1564 1563 1563 1563 1563 1562 1562 1561 1561 1561 1560 1559 1558 1557 1556 1556 1555 1554 1554 1553 1552 1551 1551 1550 1549 1548 1547 1546 1546 1545 1544 1542 1541 1540 1539 1538 1537 1536 1535 1533 1532 1531 1530 1529 1528 1527 1526 1525 1524 1523 1521 1521 1520 1519 1518 1517 1516 1515 1514 1513 1512 1512
1570 1570 1570 1569 1569 1569 1568 1568 1568 1568 1567 1567 1567 1566 1566 1566 1565 1565 1564 1564 1563 1563 1563 1562 1562 1561 1561 1561 1561 1561 1560 1560 1560 1559 1559 1558 1557 1556 1556 1555 1554 1553 1552 1551 1551 1550 1549 1549 1548 1547 1546 1546 1545 1544 1543 1542 1541 1540 1538 1537 1536 1535 1534 1533 1531 1531 1529 1528 1527 1526 1525 1524 1523 1522 1521 1519 1518 1517 1517 1516 1515 1514 1513 1512 1511 1510
1569 1568 1568 1568 1568 1567 1567 1567 1567 1566 1566 1566 1566 1566 1565 1565 1564 1564 1563 1562 1562 1561 1561 1561 1561 1560 1559 1559 1558 1558 1558 1558 1558 1557 1557 1557 1556 1556 1555 1554 1553 1552 1551 1550 1550 1549 1548 1547 1547 1546 1545 1544 1543 1542 1542 1541 1540 1539 1538 1537 1536 1534 1533 1532 1531 1530 1528 1527 1526 1525 1524 1523 1522 1521 1520 1518 1517 1516 1515 1514 1513 1513 1512 1511 1510 1509
1567 1567 1567 1567 1566 1566 1566 1566 1566 1565 1565 1565 1565 1564 1564 1563 1563 1562 1562 1562 1561 1561 1560 1560 1560 1559 1558 1557 1557 1556 1556 1555 1555 1555 1555 1555 1554 1554 1553 1552 1551 1551 1550 1549 1548 1547 1546 1546 1545 1545 1544 1543 1542 1541 1540 1540 1539 1538 1537 1536 1535 1534 1532 1531 1530 1529 1528 1526 1525 1524 1523 1522 1521 1520 1519 1518 1516 1515 1514 1513 1512 1511 1510 1510 1509 1508
1566 1566 1566 1566 1565 1565 1565 1565 1564 1564 1563 1563 1563 1563 1562 1562 1561 1561 1561 1561 1561 1560 1560 1559 1559 1558 1557 1556 1556 1555 1554 1553 1553 1553 1553 1553 1552 1551 1551 1550 1550 1549 1548 1547 1546 1546 1545 1544 1544 1543 1542 1541 1540 1540 1539 1538 1537 1536 1536 1535 1534 1533 1532 1531 1529 1528 1527 1526 1525 1523 1522 1521 1520 1519 1518 1517 1516 1514 1513 1512 1511 1510 1509 1508 1507 1506
1564 1564 1564 1564 1564 1564 1563 1563 1563 1562 1562 1562 1561 1561 1561 1561 1561 1560 1560 1559 1559 1558 1558 1558 1558 1557 1556 1556 1555 1554 1553 1552 1551 1550 1550 1551 1550 1550 1549 1548 1548 1547 1547 1546 1545 1544 1544 1543 1542 1541 1541 1540 1539 1538 1537 1536 1536 1535 1534 1534 1533 1532 1531 1530 1529 1527 1526 1525 1524 1522 1521 1520 1519 1518 1516 1516 1514 1513 1512 1511 1510 1509 1507 1506 1506 1505
1563 1563 1563 1563 1563 1562 1562 1562 1562 1561 1561 1561 1560 1560 1560 1560 1559 1559 1558 1558 1557 1557 1556 1556 1555 1555 1555 1555 1554 1553 1551 1550 1549 1548 1548 1548 1548 1548 1546 1546 1545 1545 1545 1544 1543 1543 1542 1541 1541 1540 1539 1538 1537 1536 1536 1535 1534 1533 1533 1532 1531 1531 1530 1529 1528 1527 1526 1524 1523 1522 1521 1519 1518 1516 1515 1514 1513 1512 1511 1510 1509 1508 1507 1506 1505 1503
1561 1561 1561 1561 1561 1561 1561 1561 1561 1560 1560 1560 1559 1559 1559 1558 1558 1557 1557 1556 1556 1555 1555 1554 1554 1553 1552 1553 1553 1552 1551 1549 1548 1547 1546 1546 1546 1546 1545 1544 1543 1542 1542 1542 1541 1541 1540 1540 1539 1538 1538 1537 1536 1535 1534 1534 1533 1532 1531 1530 1530 1529 1528 1527 1526 1526 1525 1523 1522 1521 1520 1518 1517 1516 1514 1513 1512 1511 1510 1509 1508 1507 1506 1505 1504 1502
1560 1560 1560 1560 1560 1560 1560 1560 1559 1559 1559 1558 1558 1558 1557 1557 1556 1556 1556 1555 1554 1554 1553 1553 1553 1552 1551 1551 1551 1551 1550 1548 1546 1546 1545 1545 1545 1545 1544 1543 1541 1541 1540 1540 1539 1538 1538 1537 1537 1537 1536 1535 1535 1534 1533 1532 1531 1531 1530 1529 1528 1527 1526 1526 1525 1524 1523 1522 1521 1520 1519 1517 1516 1515 1513 1512 1511 1510 1508 1507 1506 1505 1505 1504 1503 1502
1558 1558 1559 1559 1559 1559 1559 1558 1558 1557 1557 1557 1557 1556 1556 1556 1555 1555 1554 1554 1553 1553 1552 1552 1551 1551 1551 1550 1550 1550 1549 1547 1546 1545 1544 1543 1543 1543 1543 1542 1541 1540 1539 1538 1538 1537 1536 1535 1535 1535 1534 1533 1533 1532 1531 1531 1530 1529 1528 1527 1526 1525 1524 1524 1523 1522 1521 1521 1520 1519 1518 1516 1515 1514 1512 1511 1510 1508 1507 1506 1505 1504 1503 1502 1501 1501
1557 1557 1557 1557 1557 1557 1557 1557 1556 1556 1556 1556 1555 1555 1555 1554 1554 1553 1553 1552 1552 1551 1551 1551 1550 1549 1549 1549 1548 1548 1548 1546 1545 1543 1542 1542 1542 1542 1542 1541 1539 1538 1538 1537 1536 1536 1535 1534 1533 1532 1532 1531 1531 1530 1530 1529 1528 1528 1527 1526 1525 1524 1523 1522 1521 1521 1520 1519 1518 1517 1516 1515 1514 1513 1511 1510 1509 1507 1506 1505 1503 1502 1501 1501 1500 1499
1556 1556 1556 1556 1556 1556 1556 1556 1555 1555 1554 1554 1554 1554 1553 1553 1552 1552 1551 1551 1550 1550 1549 1549 1548 1548 1547 1547 1547 1546 1546 1545 1544 1542 1541 1540 1541 1541 1541 1540 1538 1537 1537 1536 1536 1535 1533 1532 1531 1531 1530 1529 1528 1528 1527 1527 1526 1526 1525 1524 1523 1522 1521 1521 1520 1519 1518 1517 1516 1516 1515 1514 1513 1511 1510 1509 1508 1506 1505 1503 1502 1501 1500 1499 1498 1497
1554 1554 1554 1554 1554 1555 1554 1554 1554 1553 1553 1553 1552 1552 1551 1551 1551 1550 1550 1549 1549 1548 1547 1547 1546 1546 1546 1546 1545 1545 1545 1544 1543 1541 1540 1539 1538 1539 1540 1539 1537 1536 1535 1535 1534 1533 1532 1531 1530 1530 1529 1527 1526 1526 1525 1525 1525 1524 1523 1523 1522 1521 1520 1519 1518 1517 1516 1516 1515 1514 1513 1512 1511 1510 1509 1508 1506 1505 1504 1502 1501 1500 1498 1497 1496 1496
1553 1553 1552 1553 1553 1553 1553 1553 1552 1552 1551 1551 1551 1551 1550 1550 1549 1549 1548 1548 1547 1546 1546 1545 1545 1545 1545 1544 1544 1544 1544 1543 1542 1541 1539 1538 1536 1537 1538 1537 1536 1535 1534 1533 1533 1531 1531 1530 1529 1528 1527 1526 1525 1524 1523 1523 1522 1522 1521 1521 1520 1519 1518 1517 1516 1516 1515 1514 1513 1512 1511 1510 1509 1508 1507 1506 1505 1503 1502 1501 1499 1498 1497 1496 1495 1494
1551 1551 1551 1551 1551 1551 1551 1551 1551 1551 1550 1550 1550 1549 1549 1548 1548 1547 1547 1546 1546 1545 1544 1543 1543 1543 1543 1543 1543 1542 1542 1542 1541 1540 1538 1536 1535 1535 1536 1535 1534 1533 1531 1531 1531 1530 1529 1528 1528 1527 1526 1525 1524 1523 1522 1521 1521 1520 1519 1519 1518 1517 1517 1516 1515 1514 1513 1512 1511 1510 1509 1508 1507 1506 1505 1504 1503 1502 1501 1499 1498 1496 1495 1494 1493 1492
1550 1550 1550 1550 1550 1550 1550 1550 1550 1550 1549 1549 1548 1547 1547 1546 1546 1546 1545 1545 1544 1543 1542 1541 1541 1541 1541 1541 1541 1541 1540 1540 1540 1538 1537 1535 1533 1533 1533 1533 1532 1531 1529 1529 1529 1529 1527 1526 1526 1526 1525 1524 1523 1522 1521 1520 1519 1518 1517 1517 1516 1516 1515 1514 1513 1512 1511 1511 1509 1508 1507 1506 1505 1504 1503 1502 1501 1500 1499 1497 1496 1495 1493 1492 1491 1491
1548 1548 1548 1548 1548 1549 1549 1549 1548 1548 1548 1547 1546 1546 1545 1545 1544 1544 1543 1543 1542 1541 1541 1540 1539 1539 1538 1538 1538 1538 1538 1538 1538 1537 1536 1534 1531 1531 1531 1531 1530 1528 1526 1526 1526 1526 1526 1525 1524 1524 1524 1522 1521 1521 1520 1519 1518 1517 1516 1515 1514 1513 1513 1512 1511 1511 1510 1509 1508 1507 1506 1505 1503 1502 1501 1500 1499 1498 1496 1495 1494 1493 1491 1490 1489 1489
1546 1547 1547 1547 1547 1547 1547 1547 1547 1547 1546 1546 1545 1545 1544 1543 1543 1542 1542 1541 1541 1540 1539 1538 1537 1536 1536 1536 1536 1536 1536 1536 1536 1535 1534 1532 1531 1529 1528 1529 1528 1526 1525 1524 1524 1524 1523 1522 1522 1522 1522 1521 1520 1520 1519 1518 1516 1516 1515 1513 1512 1511 1511 1510 1509 1508 1507 1507 1506 1505 1504 1503 1502 1501 1500 1498 1497 1496 1495 1493 1492 1491 1489 1488 1487 1486
1545 1545 1545 1546 1546 1546 1546 1546 1546 1546 1545 1545 1544 1543 1543 1542 1541 1541 1540 1540 1539 1538 1537 1536 1536 1535 1534 1533 1533 1533 1534 1534 1534 1533 1532 1531 1529 1527 1527 1527 1526 1524 1523 1521 1520 1520 1521 1520 1520 1519 1519 1519 1519 1518 1517 1516 1516 1515 1513 1512 1511 1510 1508 1507 1506 1506 1505 1505 1504 1503 1502 1501 1500 1499 1498 1497 1496 1494 1493 1491 1490 1489 1487 1486 1485 1484
1543 1543 1543 1544 1544 1544 1544 1544 1544 1544 1544 1543 1543 1542 1541 1541 1540 1539 1538 1538 1538 1537 1536 1535 1534 1534 1532 1531 1531 1531 1531 1532 1531 1531 1531 1529 1527 1526 1526 1526 1524 1523 1522 1520 1517 1516 1517 1517 1517 1517 1516 1516 1516 1516 1516 1515 1514 1513 1512 1511 1510 1508 1507 1506 1505 1504 1503 1502 1501 1501 1500 1499 1499 1498 1496 1495 1494 1493 1491 1490 1488 1487 1485 1484 1482 1481
1541 1541 1541 1542 1542 1542 1542 1542 1542 1542 1542 1542 1541 1541 1540 1539 1539 1538 1537 1536 1536 1535 1534 1533 1533 1532 1531 1530 1529 1528 1529 1530 1530 1530 1529 1528 1526 1524 1524 1524 1523 1521 1521 1519 1516 1513 1512 1513 1514 1515 1514 1514 1514 1514 1513 1513 1512 1511 1511 1509 1508 1507 1506 1504 1503 1502 1501 1500 1499 1499 1498 1497 1497 1496 1495 1494 1492 1491 1490 1488 1487 1485 1483 1481 1480 1479
1539 1539 1540 1540 1540 1540 1541 1541 1541 1541 1541 1540 1540 1539 1538 1537 1537 1536 1535 1535 1534 1534 1533 1532 1531 1531 1530 1529 1528 1527 1526 1527 1528 1528 1528 1526 1524 1522 1523 1523 1521 1520 1520 1520 1517 1513 1509 1508 1510 1511 1511 1511 1511 1511 1511 1511 1511 1510 1509 1507 1506 1505 1504 1503 1502 1501 1499 1498 1497 1497 1496 1495 1495 1494 1493 1492 1491 1490 1488 1487 1485 1483 1481 1480 1478 1477
1537 1537 1538 1538 1538 1538 1539 1539 1539 1539 1539 1538 1538 1537 1537 1536 1535 1534 1534 1533 1532 1532 1531 1530 1530 1529 1528 1528 1527 1526 1525 1526 1526 1527 1526 1525 1522 1521 1521 1521 1520 1518 1518 1518 1517 1515 1511 1507 1506 1507 1508 1508 1507 1507 1508 1508 1508 1508 1507 1506 1504 1503 1503 1502 1501 1499 1498 1497 1496 1495 1494 1493 1492 1491 1491 1490 1489 1488 1486 1486 1484 1482 1480 1478 1476 1475
1535 1536 1536 1536 1536 1536 1536 1536 1537 1536 1536 1536 1536 1536 1535 1534 1533 1533 1532 1531 1531 1530 1530 1529 1528 1527 1526 1526 1525 1524 1524 1524 1525 1525 1525 1523 1521 1519 1519 1519 1518 1516 1516 1516 1515 1514 1511 1508 1505 1503 1503 1504 1504 1504 1504 1505 1505 1505 1505 1503 1502 1501 1501 1501 1500 1498 1496 1496 1494 1493 1492 1491 1490 1489 1488 1487 1486 1486 1485 1484 1482 1481 1479 1477 1475 1473
1533 1533 1534 1534 1534 1534 1534 1535 1535 1535 1534 1534 1534 1533 1533 1532 1532 1531 1531 1530 1529 1529 1528 1527 1526 1526 1525 1524 1523 1522 1522 1522 1523 1523 1522 1521 1520 1518 1517 1517 1516 1515 1514 1513 1512 1511 1509 1507 1505 1503 1501 1500 1500 1501 1501 1501 1501 1502 1502 1501 1500 1499 1499 1499 1498 1496 1495 1494 1493 1491 1490 1489 1488 1486 1485 1484 1484 1483 1482 1481 1480 1479 1478 1476 1474 1472
1531 1531 1531 1531 1532 1532 1532 1532 1532 1532 1532 1532 1531 1531 1531 1530 1530 1529 1529 1528 1528 1527 1526 1526 1525 1524 1523 1522 1521 1520 1520 1521 1521 1521 1520 1519 1518 1516 1515 1514 1514 1513 1512 1511 1510 1509 1507 1505 1503 1502 1500 1497 1496 1496 1498 1498 1498 1498 1498 1498 1498 1497 1496 1496 1496 1495 1493 1492 1491 1490 1489 1487 1486 1485 1483 1482 1481 1480 1479 1478 1478 1477 1476 1475 1474 1472
1529 1529 1529 1529 1530 1530 1530 1530 1530 1530 1530 1530 1529 1529 1528 1528 1527 1527 1527 1526 1526 1525 1524 1524 1523 1522 1521 1521 1520 1518 1518 1518 1519 1519 1518 1517 1516 1515 1513 1512 1512 1512 1511 1509 1507 1507 1506 1503 1501 1500 1499 1497 1494 1493 1494 1495 1495 1495 1494 1495 1495 1495 1494 1494 1494 1493 1491 1490 1489 1488 1487 1486 1485 1483 1481 1480 1479 1478 1476 1476 1475 1474 1474 1473 1472 1471
1526 1526 1527 1527 1527 1527 1527 1527 1527 1527 1527 1527 1526 1526 1526 1526 1525 1525 1525 1524 1524 1523 1522 1521 1521 1520 1519 1518 1518 1517 1516 1516 1516 1516 1516 1515 1515 1513 1512 1510 1510 1510 1510 1508 1506 1504 1503 1501 1499 1497 1496 1495 1494 1491 1491 1491 1491 1491 1491 1491 1491 1491 1491 1491 1491 1491 1489 1488 1487 1486 1485 1484 1483 1481 1480 1479 1478 1476 1475 1474 1473 1472 1471 1470 1469 1469
1524 1524 1525 1525 1525 1525 1525 1525 1525 1525 1525 1524 1524 1523 1523 1523 1523 1522 1522 1521 1521 1521 1520 1519 1518 1518 1517 1516 1515 1515 1514 1514 1514 1514 1513 1513 1512 1511 1510 1508 1507 1507 1507 1506 1505 1503 1501 1500 1497 1495 1493 1492 1491 1490 1489 1488 1488 1487 1487 1487 1487 1487 1487 1487 1487 1487 1486 1485 1484 1484 1483 1482 1481 1480 1478 1477 1476 1475 1473 1471 1471 1470 1469 1467 1466 1466
1522 1522 1522 1522 1523 1523 1522 1522 1522 1522 1522 1521 1521 1521 1520 1520 1520 1520 1519 1519 1518 1518 1517 1517 1516 1515 1515 1514 1513 1512 1512 1511 1511 1511 1511 1510 1510 1509 1508 1507 1505 1505 1505 1504 1503 1501 1500 1498 1496 1494 1492 1490 1488 1487 1486 1486 1486 1484 1483 1483 1483 1483 1484 1484 1484 1484 1483 1482 1482 1481 1480 1479 1478 1477 1476 1475 1474 1472 1471 1469 1468 1468 1466 1465 1463 1462
1520 1520 1520 1520 1520 1520 1520 1520 1519 1519 1519 1519 1518 1518 1518 1517 1517 1516 1516 1516 1516 1515 1515 1514 1513 1512 1512 1511 1511 1510 1509 1509 1509 1508 1508 1508 1507 1506 1506 1505 1503 1502 1502 1501 1501 1499 1498 1496 1494 1492 1491 1489 1487 1485 1483 1483 1483 1482 1482 1481 1479 1479 1480 1481 1481 1480 1480 1479 1479 1478 1476 1476 1475 1475 1473 1472 1471 1470 1469 1468 1466 1466 1465 1463 1461 1459
1517 1517 1517 1518 1518 1518 1518 1517 1517 1516 1516 1516 1516 1515 1515 1515 1514 1514 1513 1513 1513 1512 1512 1511 1511 1509 1509 1508 1508 1508 1507 1506 1506 1506 1506 1505 1505 1504 1503 1502 1501 1500 1500 1498 1497 1496 1495 1494 1492 1490 1488 1487 1486 1483 1481 1481 1481 1481 1480 1478 1476 1476 1476 1476 1477 1476 1476 1476 1475 1475 1474 1473 1472 1471 1470 1470 1468 1468 1467 1466 1465 1463 1462 1462 1461 1459
1515 1515 1515 1516 1516 1516 1515 1515 1514 1514 1514 1513 1513 1512 1512 1512 1512 1511 1510 1510 1509 1509 1509 1508 1507 1506 1505 1505 1504 1505 1505 1504 1504 1503 1503 1502 1502 1501 1501 1500 1499 1498 1497 1496 1494 1493 1492 1491 1490 1488 1486 1485 1484 1482 1479 1478 1478 1478 1478 1476 1475 1473 1472 1472 1473 1474 1474 1472 1471 1471 1471 1470 1469 1468 1467 1466 1466 1465 1464 1464 1463 1461 1460 1459 1458 1457
1513 1513 1513 1513 1513 1513 1513 1512 1512 1511 1511 1511 1511 1510 1510 1510 1509 1508 1507 1507 1506 1506 1506 1505 1505 1503 1502 1501 1501 1501 1502 1501 1501 1501 1500 1500 1499 1498 1498 1497 1496 1495 1495 1493 1492 1490 1489 1489 1488 1486 1484 1483 1482 1480 1477 1476 1475 1475 1475 1474 1473 1472 1470 1468 1469 1471 1471 1470 1468 1468 1468 1467 1466 1465 1464 1463 1462 1461 1461 1461 1460 1459 1458 1457 1456 1454
1511 1511 1511 1511 1511 1511 1510 1510 1510 1509 1509 1508 1508 1507 1507 1507 1506 1506 1505 1504 1503 1503 1503 1502 1501 1501 1499 1498 1497 1498 1498 1498 1498 1498 1497 1497 1496 1496 1495 1494 1493 1492 1492 1491 1490 1488 1486 1485 1484 1483 1482 1482 1480 1478 1476 1474 1473 1472 1472 1471 1471 1471 1468 1466 1466 1467 1467 1466 1465 1465 1465 1464 1463 1461 1460 1459 1459 1458 1457 1457 1456 1455 1455 1454 1453 1452
1509 1509 1509 1508 1508 1508 1508 1507 1507 1507 1506 1506 1505 1505 1504 1504 1504 1503 1502 1501 1501 1500 1500 1500 1499 1498 1496 1494 1495 1495 1495 1494 1494 1494 1495 1494 1493 1493 1492 1491 1491 1490 1489 1488 1487 1486 1485 1483 1481 1480 1480 1479 1478 1476 1474 1472 1471 1470 1469 1469 1469 1468 1466 1464 1464 1464 1464 1462 1462 1461 1461 1461 1460 1458 1456 1455 1455 1454 1454 1453 1452 1451 1451 1451 1450 1449
1506 1506 1506 1506 1506 1506 1505 1505 1504 1504 1503 1503 1502 1502 1502 1502 1501 1500 1499 1499 1498 1497 1496 1496 1496 1495 1493 1492 1491 1492 1491 1491 1491 1491 1491 1491 1491 1490 1489 1488 1487 1486 1486 1484 1483 1482 1481 1481 1479 1478 1477 1476 1474 1472 1471 1471 1469 1467 1465 1465 1466 1465 1463 1462 1461 1461 1461 1460 1459 1458 1458 1458 1457 1455 1453 1451 1451 1451 1450 1449 1449 1448 1447 1446 1446 1446
1504 1504 1504 1504 1503 1503 1502 1502 1502 1501 1501 1500 1500 1500 1500 1499 1498 1497 1496 1496 1495 1495 1494 1493 1492 1491 1491 1490 1489 1489 1488 1487 1487 1487 1487 1488 1487 1486 1486 1485 1484 1483 1482 1481 1480 1479 1478 1477 1476 1476 1475 1473 1471 1468 1467 1467 1467 1466 1463 1462 1462 1462 1461 1459 1459 1459 1459 1458 1456 1455 1455 1455 1454 1451 1450 1449 1448 1447 1446 1445 1445 1444 1444 1443 1442 1441
1502 1502 1502 1501 1501 1501 1500 1500 1499 1499 1498 1498 1497 1497 1497 1496 1496 1495 1494 1492 1492 1492 1491 1490 1489 1488 1487 1487 1486 1486 1486 1485 1484 1483 1483 1484 1484 1483 1482 1482 1481 1480 1479 1478 1477 1476 1475 1474 1473 1473 1472 1471 1468 1465 1463 1463 1464 1463 1462 1460 1460 1459 1458 1456 1456 1456 1456 1455 1454 1453 1453 1452 1451 1449 1447 1446 1444 1443 1441 1441 1441 1440 1440 1439 1438 1437
1500 1500 1500 1499 1499 1498 1497 1497 1497 1496 1496 1495 1494 1494 1494 1493 1493 1492 1491 1490 1489 1488 1487 1486 1486 1485 1484 1483 1483 1483 1483 1482 1481 1480 1480 1480 1480 1480 1479 1478 1478 1477 1476 1475 1474 1473 1471 1470 1469 1469 1468 1468 1466 1463 1460 1460 1460 1461 1460 1458 1457 1456 1455 1453 1453 1453 1453 1452 1451 1450 1450 1449 1448 1446 1445 1443 1441 1439 1438 1437 1437 1436 1436 1436 1435 1434
1498 1498 1497 1497 1496 1496 1495 1495 1494 1494 1493 1492 1492 1491 1491 1491 1490 1489 1489 1487 1486 1485 1484 1483 1482 1482 1481 1480 1480 1480 1480 1479 1478 1477 1477 1477 1477 1477 1476 1475 1475 1474 1473 1472 1471 1470 1469 1468 1466 1464 1464 1465 1465 1462 1459 1456 1456 1457 1457 1456 1454 1453 1452 1451 1450 1449 1450 1449 1448 1447 1446 1446 1444 1443 1443 1441 1438 1436 1435 1434 1433 1433 1432 1432 1432 1431
1496 1495 1495 1494 1494 1493 1492 1492 1491 1491 1490 1490 1489 1489 1488 1487 1487 1486 1486 1484 1483 1482 1481 1480 1480 1479 1478 1478 1477 1477 1477 1477 1476 1475 1474 1474 1475 1475 1474 1473 1472 1472 1471 1470 1468 1467 1467 1466 1463 1461 1460 1461 1462 1461 1459 1456 1454 1454 1454 1452 1451 1451 1450 1448 1447 1446 1446 1446 1445 1444 1443 1442 1441 1441 1440 1439 1436 1434 1432 1431 1430 1429 1429 1429 1429 1427